Regional Weather Roundup
Issued by NWS

Home | Current Version | Previous Version | Text Only | Print | Product List | Glossary Off
Versions: 1 2 3 4 5 6 7 8 9 10 11 12 13 14 15 16 17 18 19 20 21 22 23 24 25 26 27 28 29 30 31 32 33 34 35 36 37 38 39 40 41 42 43 44 45 46 47 48 49 50

000
ASUS43 KLOT 271312
RWRIL

ILLINOIS REGIONAL WEATHER ROUNDUP
NATIONAL WEATHER SERVICE CHICAGO/ROMEOVILLE IL
800 AM CDT WED MAY 27 2015

NOTE: "FAIR" INDICATES FEW OR NO CLOUDS BELOW 12,000 FEET WITH NO
SIGNIFICANT WEATHER AND/OR OBSTRUCTIONS TO VISIBILITY.

* THESE STATIONS ARE NOT UNDER NWS QUALITY CONTROL. THEY ALSO MAY NOT
  REPORT WEATHER SUCH AS PRECIPITATION OR FOG.

ILZ001-002-007-009-015-016-024-271400-
NORTHWEST ILLINOIS

CITY           SKY/WX    TMP DP  RH WIND       PRES   REMARKS
MOLINE         CLOUDY    64  59  83 W10       29.97R
STERLING*      MOSUNNY   66  61  82 W14       29.96R
SAVANNA*       PTSUNNY   65  59  82 W8        29.93R
$$

ILZ003-004-008-010-011-017-018-271400-
NORTH CENTRAL ILLINOIS

CITY           SKY/WX    TMP DP  RH WIND       PRES   REMARKS
ROCKFORD       CLOUDY    65  59  81 W10G21    29.93R
FREEPORT*      CLOUDY    62  60  94 W8        29.93S FOG
ROCHELLE*      CLOUDY    63  61  92 SW16      29.95R
DE KALB*       CLOUDY    62  58  88 W14       29.95R
PERU*          CLOUDY    65  59  80 W13       29.98R
$$

ILZ005-006-012>014-019>023-271400-
NORTHEAST ILLINOIS

CITY           SKY/WX    TMP DP  RH WIND       PRES   REMARKS
CHICAGO-OHARE  PTSUNNY   66  59  78 W20       29.93R
CHICAGO-MIDWAY PTSUNNY   69  62  78 SW21      29.94R
AURORA         MOSUNNY   66  60  81 SW14      29.95R
LANSING*       PTSUNNY   68  60  74 SW15G22   29.97R
JOLIET*        CLOUDY    68  63  83 SW10G20   29.97R
WAUKEGAN       CLOUDY    65  60  84 SW12G20   29.90R
DUPAGE AIRPORT MOSUNNY   66  60  81 SW18      29.94R
KANKAKEE*      PTSUNNY   69  64  84 SW13G21   29.99R
WHEELING       CLOUDY    65  59  81 SW13G22   29.94R
MORRIS*        PTSUNNY   67  63  85 SW13      29.96R
ROMEOVILLE*    CLOUDY    66  61  84 SW13      29.97R
NORTHERLY ISL    N/A     68  59  73 W6          N/A
$$

LMZ740>746-271400-
SOUTHERN LAKE MICHIGAN

STATION/POSITION SKY/WX   TEMP    WIND        PRES    VSBY  WAVE
                          AIR SEA DIR/SP/G                  HT/PER
                          (F)     (DEG/KT/KT) (MB)    (MI)  (FT/S)
SOUTHERN BUOY              47 38  200/ 14/ 16 1012.7R
HARRISON CRIB              66     230/ 14/ 18   N/A
BURNHAM HARBOR             68     210/  9/ 13   N/A
CALUMET HARBOR             67     210/  9/ 15   N/A
BURNS HARBOR               68     230/ 16/ 22 1015.2R
MICHIGAN CITY              66     190/ 16/ 20   N/A
MICHIGAN CITY 6N           59 52  230/  8/ 10   N/A           1/ 3
ST. JOSEPH                 60 55  230/ 12/ 12   N/A           2/ 4
$$

ILZ025>027-034>036-040-047-049-050-058-095>099-271400-
WEST-CENTRAL ILLINOIS

CITY           SKY/WX    TMP DP  RH WIND       PRES   REMARKS
QUINCY         CLOUDY    67  62  84 W7        30.01R
GALESBURG*     SUNNY     66  60  80 SW7       29.98R
MACOMB*        MOSUNNY   66  63  91 SW7       30.01R
JACKSONVILLE*  CLOUDY    69  64  84 SW9       30.01S
PITTSFIELD*    CLOUDY    68  64  85 SW8       30.03S
$$

ILZ028>032-037-038-041>044-048-051>054-059>061-271400-
CENTRAL ILLINOIS

CITY           SKY/WX    TMP DP  RH WIND       PRES   REMARKS
PONTIAC        PTSUNNY   70  65  85 SW15      29.99R
BLOOMINGTON    MOSUNNY   67  65  93 SW13      30.02R
DECATUR        CLOUDY    68  63  84 SW12      30.02S
PEORIA         CLOUDY    68  63  84 SW7       29.99R
LACON*         SUNNY     67  59  75 W7        29.97R
LINCOLN*       CLOUDY    70  64  80 SW8       29.97F
SPRINGFIELD    CLOUDY    70  64  81 SW9       30.00F
TAYLORVILLE    CLOUDY    68  63  83 S8        30.02S
$$

ILZ033-039-045-046-055>057-062-063-271400-
EAST-CENTRAL ILLINOIS

CITY           SKY/WX    TMP DP  RH WIND       PRES   REMARKS
CHAMPAIGN      PTSUNNY   70  63  78 SW14      30.02R
DANVILLE*      PTSUNNY   68  64  86 SW12      30.00S
RANTOUL*       CLOUDY    69  65  86 SW14      30.01S
MATTOON        CLOUDY    68  64  87 SW8       30.03S
PARIS*         PTSUNNY   71  64  77 SW14      30.05R
$$

ILZ079-100>102-271400-
SOUTHWEST ILLINOIS

CITY           SKY/WX    TMP DP  RH WIND       PRES   REMARKS
ALTON          PTSUNNY   68  68 100 S7        30.07R
BELLEVILLE     CLOUDY    68  64  88 SW14      30.07S
CAHOKIA*       LGT RAIN  68  61  78 SW9G23    30.09R
SPARTA*        TSTM      66  64  95 W8G16     30.11R
$$

ILZ064>066-069>071-074>076-080>082-084>086-088>090-092>094-271400-
SOUTH-CENTRAL ILLINOIS

CITY           SKY/WX    TMP DP  RH WIND       PRES   REMARKS
CARBONDALE     CLOUDY    67  63  87 W5        30.10R THUNDER
CAIRO*         MOSUNNY   70  67  90 S10       30.10S
EFFINGHAM*     CLOUDY    69  63  80 S7        30.06S
MARION         PTSUNNY   70  66  88 MISG      30.09S
MT. VERNON     CLOUDY    66  61  82 S5        30.09R
CENTRALIA*     LGT RAIN  65  62  91 SW8       30.10R
SALEM*         LGT RAIN  69  64  84 SW7       30.08R
METROPOLIS*    MOSUNNY   69  69 100 S3        30.09F
$$

ILZ067-068-072-073-078-083-087-091-271400-
SOUTHEAST ILLINOIS

CITY           SKY/WX    TMP DP  RH WIND       PRES   REMARKS
LAWRENCEVILLE  PTSUNNY   70  63  78 S9        30.09R
FLORA*         PTSUNNY   67  63  86 S7        30.08S
FAIRFIELD*     CLOUDY    68  64  86 S7        30.07S
HARRISBURG*    PTSUNNY   69  67  92 S7        30.10S
ROBINSON*      PTSUNNY   69  63  81 S10       30.09R
CARMI*         PTSUNNY   70  61  73 SW6       30.09S
$$

ABBREVIATIONS USED IN REMARKS
   TC - TEMPERATURE IN CELSIUS
  WCI - WIND CHILL INDEX
   HX - HEAT INDEX
  VSB - VISIBILITY
$$



USA.gov is the U.S. government's official web portal to all federal, state and local government web resources and services.